map of YDB home
YDB - Airport
Location
City:  Burwash Landings, Yukon, Canada
ICAO:CYDB
IATA:YDB

Details
Type:Airport (Airfield)
Latitude:6122'16"N (61.371111)
Longitude:13902'26"W (-139.040555)
Datum:WGS 1984
Elevation:2647 ft (807 m)
Variation:19.01E (WMM2015v2 magnetic declination)
-0.28 annual change
Runways:1
Longest:5000 × 100 ft (1524 × 30.5 m)

Weather
METAR:CYDB 041416Z AUTO 11002KT 2 1/4SM -SN OVC026 M15/M18 A2990 RMK SLP202
TAF:CYDB 041138Z 0412/0424 VRB03KT P6SM OVC080
TEMPO 0412/0413 5SM -SN
FM041500 VRB03KT 6SM -SN OVC060
TEMPO 0415/0424 3SM -SN SCT020 OVC040
RMK FCST BASED ON AUTO OBS. NXT FCST BY 041800Z

Related Locations
Nearby:
Farthest:NZSP: 10445 mi / 16809 km
Amundsen-Scott South Pole Station [Jack F. Paulus Skiway], AQ

Find:

   beyond  
but within

Other Information
Maps:
NOTAMs:
Links:
Sources:

  
  • flag of Canada
  • flag of Yukon
  

Airport Diagram

Airport diagram for YDB

Airport diagram PDF

Sectional Chart

Flight Planning
at skyvector.com

Satellite Image

Google Maps Satellite view

 

Copyright © 2004-2019 Karl L. Swartz. All rights reserved.
The Great Circle Mapper name and logo are trademarks of the Great Circle Mapper.
All other trademarks mentioned herein belong to their respective owners.
Please see credits for attibutions and further copyright information.

  Follow gcmap on Facebook Follow gcmap on Twitter GCmap on LinkedIn

hCard Microformat

Geo Microformat